GW7035 Weather Reports


time (UTC)temp
F
wind
direction
speed
knots
gust
knots
rain 1hr
in
rain 24hr
in
rain mn
in
humidity
%
barometer
mb
20260507224502 52 293 7.8 0.0 0.00 0.00 0.00 47 1007.1
20260507224002 53 270 7.0 0.0 0.00 0.00 0.00 46 1007.1
20260507223502 53 270 4.3 0.0 0.00 0.00 0.00 47 1007.1
20260507223002 53 270 7.0 0.0 0.00 0.00 0.00 45 1007.1
20260507222501 54 270 8.7 0.0 0.00 0.00 0.00 45 1007.1
20260507222001 53 293 6.1 0.0 0.00 0.00 0.00 46 1007.1
20260507221502 52 270 6.1 0.0 0.00 0.00 0.00 45 1007.1
20260507221002 52 270 7.8 0.0 0.00 0.00 0.00 45 1007.1
20260507220502 53 270 7.8 0.0 0.00 0.00 0.00 44 1007.1
20260507220002 53 270 7.8 0.0 0.00 0.00 0.00 43 1007.1
20260507215502 54 270 5.2 0.0 0.00 0.00 0.00 42 1007.1
20260507215002 54 270 7.8 0.0 0.00 0.00 0.00 42 1006.8
20260507214502 54 248 6.1 0.0 0.00 0.00 0.00 42 1006.8
20260507214002 55 248 10.4 0.0 0.00 0.00 0.00 42 1006.8
20260507213501 55 270 5.2 0.0 0.00 0.00 0.00 42 1006.8
20260507213001 55 270 5.2 0.0 0.00 0.00 0.00 41 1006.8
20260507212501 54 270 5.2 0.0 0.00 0.00 0.00 42 1006.8
20260507212002 55 270 12.2 0.0 0.00 0.00 0.00 41 1006.8
20260507211501 55 270 8.7 0.0 0.00 0.00 0.00 42 1006.8
20260507211002 55 270 6.1 0.0 0.00 0.00 0.00 40 1006.8
20260507210002 56 270 6.1 0.0 0.00 0.00 0.00 42 1006.4
20260507205502 55 270 7.0 0.0 0.00 0.00 0.00 44 1006.4
20260507204502 54 270 8.7 0.0 0.00 0.00 0.00 45 1006.4
20260507203501 55 225 7.0 0.0 0.00 0.00 0.00 43 1006.4
20260507203002 55 270 9.6 0.0 0.00 0.00 0.00 43 1006.4
20260507202501 56 248 7.0 0.0 0.00 0.00 0.00 43 1006.4
20260507202002 56 270 10.4 0.0 0.00 0.00 0.00 42 1006.4
20260507201502 57 270 6.1 0.0 0.00 0.00 0.00 40 1006.4
20260507201001 56 270 9.6 0.0 0.00 0.00 0.00 42 1006.4
20260507200501 54 270 7.8 0.0 0.00 0.00 0.00 43 1006.4
20260507200002 53 270 9.6 0.0 0.00 0.00 0.00 44 1006.4
20260507195502 53 293 7.8 0.0 0.00 0.00 0.00 46 1006.4
20260507195002 53 270 7.8 0.0 0.00 0.00 0.00 46 1006.4
20260507194002 53 203 4.3 0.0 0.00 0.00 0.00 48 1006.4
20260507193502 52 248 7.0 0.0 0.00 0.00 0.00 47 1006.4
20260507193001 52 180 2.6 0.0 0.00 0.00 0.00 47 1006.8
20260507192502 52 270 3.5 0.0 0.00 0.00 0.00 46 1006.4
20260507192002 53 270 10.4 0.0 0.00 0.00 0.00 44 1006.4
20260507191502 54 225 4.3 0.0 0.00 0.00 0.00 43 1006.4
20260507191002 54 225 5.2 0.0 0.00 0.00 0.00 43 1006.4
20260507190502 52 270 8.7 0.0 0.00 0.00 0.00 43 1006.4
20260507190002 52 270 6.1 0.0 0.00 0.00 0.00 44 1006.8
20260507185501 53 270 7.0 0.0 0.00 0.00 0.00 45 1006.4
20260507185002 52 270 6.1 0.0 0.00 0.00 0.00 44 1006.8
20260507184502 52 270 8.7 0.0 0.00 0.00 0.00 45 1006.8
20260507184002 52 270 7.8 0.0 0.00 0.00 0.00 45 1006.8
20260507183501 52 248 5.2 0.0 0.00 0.00 0.00 46 1006.4
20260507183002 52 270 7.0 0.0 0.00 0.00 0.00 44 1006.8
20260507182502 51 270 11.3 0.0 0.00 0.00 0.00 44 1006.8
20260507182001 51 248 7.0 0.0 0.00 0.00 0.00 45 1006.8
20260507181501 51 270 8.7 0.0 0.00 0.00 0.00 47 1006.8
20260507181002 51 270 4.3 0.0 0.00 0.00 0.00 47 1006.8
20260507180502 51 225 6.1 0.0 0.00 0.00 0.00 47 1006.4
20260507180006 52 270 7.0 0.0 0.00 0.00 0.00 46 1006.4
20260507175502 53 203 4.3 0.0 0.00 0.00 0.00 46 1006.4
20260507175002 53 203 8.7 0.0 0.00 0.00 0.00 45 1006.4
20260507174502 52 225 5.2 0.0 0.00 0.00 0.00 47 1006.4
20260507173502 52 203 1.7 0.0 0.00 0.00 0.00 47 1006.4
20260507173002 52 270 13.9 0.0 0.00 0.00 0.00 47 1006.4
20260507172501 51 270 5.2 0.0 0.00 0.00 0.00 49 1006.4
20260507172001 52 270 8.7 0.0 0.00 0.00 0.00 48 1006.4
20260507171002 52 203 7.0 0.0 0.00 0.00 0.00 49 1006.4
20260507170501 52 270 8.7 0.0 0.00 0.00 0.00 47 1006.8
20260507170002 52 270 12.2 0.0 0.00 0.00 0.00 46 1006.8
20260507165501 53 270 7.8 0.0 0.00 0.00 0.00 45 1006.4
20260507165002 52 203 6.1 0.0 0.00 0.00 0.00 44 1006.8
20260507164502 53 225 9.6 0.0 0.00 0.00 0.00 44 1006.8
20260507164002 52 270 9.6 0.0 0.00 0.00 0.00 45 1006.8
20260507163501 52 270 4.3 0.0 0.00 0.00 0.00 47 1006.8
20260507163001 53 270 7.0 0.0 0.00 0.00 0.00 50 1006.8
20260507162502 54 270 6.1 0.0 0.00 0.00 0.00 49 1006.8
20260507162002 53 225 8.7 0.0 0.00 0.00 0.00 53 1006.8
20260507161502 53 270 17.4 0.0 0.00 0.00 0.00 54 1006.8
20260507161001 54 225 7.8 0.0 0.00 0.00 0.00 52 1006.8
20260507160002 53 225 3.5 0.0 0.00 0.00 0.00 54 1006.8
20260507155502 53 248 4.3 0.0 0.00 0.00 0.00 54 1006.8
20260507155002 53 203 7.0 0.0 0.00 0.00 0.00 53 1007.1
20260507154501 53 203 5.2 0.0 0.00 0.00 0.00 54 1006.8
20260507154001 53 248 7.8 0.0 0.00 0.00 0.00 55 1006.8
20260507153502 53 203 5.2 0.0 0.00 0.00 0.00 54 1006.8
20260507153002 53 203 4.3 0.0 0.00 0.00 0.00 55 1006.8
20260507152502 52 225 8.7 0.0 0.00 0.00 0.00 55 1007.1
20260507152002 52 203 7.8 0.0 0.00 0.00 0.00 55 1006.8
20260507151501 52 203 8.7 0.0 0.00 0.00 0.00 54 1006.8
20260507151002 52 270 4.3 0.0 0.00 0.00 0.00 56 1006.8
20260507150501 52 203 4.3 0.0 0.00 0.00 0.00 57 1006.8
20260507150001 51 180 7.8 0.0 0.00 0.00 0.00 57 1007.1
20260507145502 51 203 6.1 0.0 0.00 0.00 0.00 57 1006.8
20260507145002 51 203 8.7 0.0 0.00 0.00 0.00 57 1007.1
20260507144501 50 270 5.2 0.0 0.00 0.00 0.00 57 1007.1
20260507144001 50 203 8.7 0.0 0.00 0.00 0.00 58 1007.1
20260507143502 51 270 9.6 0.0 0.00 0.00 0.00 57 1007.1
20260507143002 50 225 7.8 0.0 0.00 0.00 0.00 58 1007.1
20260507142502 50 180 5.2 0.0 0.00 0.00 0.00 58 1007.1
20260507142001 50 203 3.5 0.0 0.00 0.00 0.00 59 1007.1
20260507141501 50 225 7.8 0.0 0.00 0.00 0.00 59 1007.1
20260507141002 50 225 6.1 0.0 0.00 0.00 0.00 58 1007.1
20260507140502 50 248 7.8 0.0 0.00 0.00 0.00 58 1007.1
20260507140002 50 203 7.0 0.0 0.00 0.00 0.00 59 1007.1
20260507135002 49 225 4.3 0.0 0.00 0.00 0.00 60 1007.1
20260507134502 48 225 5.2 0.0 0.00 0.00 0.00 61 1007.1
20260507134002 49 248 5.2 0.0 0.00 0.00 0.00 60 1007.1
20260507133501 49 203 6.1 0.0 0.00 0.00 0.00 60 1007.1
20260507133002 51 225 8.7 0.0 0.00 0.00 0.00 61 1007.1
20260507132501 50 225 5.2 0.0 0.00 0.00 0.00 62 1007.1
20260507132001 49 270 4.3 0.0 0.00 0.00 0.00 63 1007.5
20260507131001 48 225 5.2 0.0 0.00 0.00 0.00 61 1007.5
20260507130502 48 270 4.3 0.0 0.00 0.00 0.00 61 1007.1
20260507130002 48 248 12.2 0.0 0.00 0.00 0.00 62 1007.1
20260507125002 48 203 2.6 0.0 0.00 0.00 0.00 65 1007.1
20260507124502 47 270 7.0 0.0 0.00 0.00 0.00 66 1007.5
20260507124001 47 248 3.5 0.0 0.00 0.00 0.00 68 1007.5
20260507123501 46 225 3.5 0.0 0.00 0.00 0.00 71 1007.5
20260507123002 45 225 4.3 0.0 0.00 0.00 0.00 71 1007.5
20260507122502 45 270 9.6 0.0 0.00 0.00 0.00 72 1007.1
20260507121502 45 225 5.2 0.0 0.00 0.00 0.00 72 1007.1
20260507121002 45 270 5.2 0.0 0.00 0.00 0.00 73 1007.1
20260507120507 45 225 1.7 0.0 0.00 0.00 0.00 77 1007.5
20260507120002 45 270 8.7 0.0 0.00 0.00 0.00 82 1007.1
20260507115502 45 248 3.5 0.0 0.00 0.00 0.00 87 1007.1
20260507115002 45 203 5.2 0.0 0.00 0.00 0.00 89 1007.1
20260507114507 45 225 6.1 0.0 0.00 0.00 0.00 90 1007.1
20260507114002 45 203 2.6 0.0 0.00 0.00 0.00 90 1007.1
20260507113502 45 180 3.5 0.0 0.00 0.00 0.00 90 1007.1
20260507113002 45 203 4.3 0.0 0.00 0.00 0.00 90 1007.1
20260507111503 45 203 5.2 0.0 0.00 0.00 0.00 91 1007.1
20260507111002 45 225 3.5 0.0 0.00 0.00 0.00 92 1006.8
20260507110502 45 203 5.2 0.0 0.00 0.00 0.00 92 1006.8
20260507110002 45 180 4.3 0.0 0.00 0.00 0.00 92 1006.8
20260507105501 45 270 2.6 0.0 0.00 0.00 0.00 93 1006.8
20260507105001 45 225 2.6 0.0 0.00 0.00 0.00 94 1006.8
20260507104502 45 248 1.7 0.0 0.00 0.00 0.00 94 1006.8
20260507104002 45 225 1.7 0.0 0.00 0.00 0.00 94 1006.8
20260507103502 45 203 3.5 0.0 0.00 0.00 0.00 94 1006.8
20260507103002 45 158 3.5 0.0 0.00 0.00 0.00 94 1006.8
20260507102502 45 225 2.6 0.0 0.00 0.00 0.00 94 1006.8
20260507102002 45 203 2.6 0.0 0.00 0.00 0.00 94 1006.8
20260507101002 45 180 4.3 0.0 0.00 0.00 0.00 96 1006.8
20260507100502 44 225 2.6 0.0 0.00 0.00 0.00 98 1006.8
20260507100002 44 180 0.9 0.0 0.00 0.00 0.00 99 1006.8
20260507095502 44 203 1.7 0.0 0.00 0.00 0.00 99 1006.8
20260507094001 44 180 2.6 0.0 0.00 0.00 0.00 99 1006.8
20260507093502 44 203 3.5 0.0 0.00 0.00 0.00 99 1006.8
20260507093002 44 158 2.6 0.0 0.00 0.00 0.00 99 1006.8
20260507092002 44 203 1.7 0.0 0.00 0.00 0.00 99 1006.8
20260507091502 44 158 3.5 0.0 0.00 0.00 0.00 99 1006.4
20260507091002 44 158 2.6 0.0 0.00 0.00 0.00 99 1006.4
20260507090502 44 203 0.9 0.0 0.00 0.00 0.00 99 1006.4
20260507090001 44 225 0.9 0.0 0.00 0.00 0.00 99 1006.4
20260507085502 43 180 2.6 0.0 0.00 0.00 0.00 99 1006.4
20260507085002 43 180 1.7 0.0 0.00 0.00 0.00 99 1006.4
20260507084502 43 135 0.9 0.0 0.00 0.00 0.00 99 1006.8
20260507084002 43 135 1.7 0.0 0.00 0.00 0.00 99 1006.8
20260507083501 43 158 0.9 0.0 0.00 0.00 0.00 99 1006.8
20260507083001 43 203 0.9 0.0 0.00 0.00 0.00 99 1006.8
20260507082002 43 180 1.7 0.0 0.00 0.00 0.00 99 1006.8
20260507081502 43 135 2.6 0.0 0.00 0.00 0.00 99 1006.8
20260507081002 43 180 1.7 0.0 0.00 0.00 0.00 99 1006.8
20260507080002 43 135 1.7 0.0 0.00 0.00 0.00 99 1007.1
20260507075501 43 113 2.6 0.0 0.00 0.00 0.00 99 1007.1
20260507075001 43 158 4.3 0.0 0.00 0.00 0.00 99 1007.1
20260507074501 43 203 2.6 0.0 0.00 0.00 0.00 99 1007.1
20260507074002 43 203 1.7 0.0 0.00 0.00 0.00 99 1007.1
20260507073501 43 180 2.6 0.0 0.00 0.00 0.00 99 1007.1
20260507072502 43 203 2.6 0.0 0.00 0.00 0.00 99 1006.8
20260507072001 43 203 1.7 0.0 0.00 0.00 0.00 99 1007.1
20260507071501 43 180 4.3 0.0 0.00 0.00 0.00 99 1007.1
20260507071002 43 180 2.6 0.0 0.00 0.00 0.00 99 1007.1
20260507070503 43 158 4.3 0.0 0.00 0.00 0.00 99 1007.1
20260507070003 43 180 4.3 0.0 0.00 0.00 0.00 99 1007.1
20260507065002 43 203 2.6 0.0 0.00 0.00 0.00 99 1007.1
20260507064501 43 158 2.6 0.0 0.00 0.00 0.00 99 1007.1
20260507064007 43 203 1.7 0.0 0.00 0.00 0.00 99 1007.1
20260507063502 43 225 2.6 0.0 0.00 0.00 0.00 99 1007.1
20260507063002 43 203 4.3 0.0 0.00 0.00 0.00 99 1007.1
20260507062001 43 203 4.3 0.0 0.00 0.00 0.00 99 1007.1
20260507061502 43 203 2.6 0.0 0.00 0.00 0.00 99 1007.1
20260507060507 43 203 2.6 0.0 0.00 0.00 0.00 99 1007.5
20260507060002 43 158 2.6 0.0 0.00 0.00 0.00 99 1007.1
20260507055002 43 158 2.6 0.0 0.00 0.00 0.00 99 1007.5
20260507053502 43 203 2.6 0.0 0.00 0.00 0.00 99 1007.5
20260507052001 43 135 1.7 0.0 0.00 0.00 0.00 99 1007.8
20260507051002 43 180 1.7 0.0 0.00 0.00 0.00 99 1007.8
20260507050502 43 158 1.7 0.0 0.00 0.00 0.00 99 1007.8
20260507050002 43 180 2.6 0.0 0.00 0.00 0.00 99 1008.1
20260507045002 43 203 1.7 0.0 0.00 0.00 0.00 99 1008.1
20260507044502 43 203 2.6 0.0 0.00 0.00 0.00 99 1008.1
20260507044002 43 180 3.5 0.0 0.00 0.00 0.00 99 1008.1
20260507043007 43 180 1.7 0.0 0.00 0.00 0.00 99 1008.1
20260507042501 43 180 1.7 0.0 0.00 0.00 0.00 99 1008.1
20260507042007 43 180 2.6 0.0 0.00 0.00 0.00 99 1008.1
20260507041501 43 158 3.5 0.0 0.00 0.00 0.00 99 1008.1
20260507041002 43 180 2.6 0.0 0.00 0.00 0.00 99 1008.1
20260507040502 43 180 2.6 0.0 0.00 0.00 0.00 99 1008.5
20260507040002 43 203 1.7 0.0 0.00 0.00 0.00 99 1008.5
20260507035502 43 158 0.9 0.0 0.00 0.00 0.39 99 1008.5
20260507035001 43 180 2.6 0.0 0.00 0.00 0.39 99 1008.5
20260507034507 43 180 1.7 0.0 0.00 0.00 0.39 99 1008.5
20260507034002 44 180 0.9 0.0 0.00 0.00 0.39 98 1008.5
20260507033501 44 180 2.6 0.0 0.00 0.00 0.39 98 1008.5
20260507032502 44 158 3.5 0.0 0.00 0.00 0.39 97 1008.5
20260507032001 44 203 1.7 0.0 0.00 0.00 0.39 97 1008.5
20260507031501 44 158 3.5 0.0 0.00 0.00 0.39 97 1008.5
20260507031002 44 158 1.7 0.0 0.00 0.00 0.39 97 1008.5
20260507030502 44 203 1.7 0.0 0.00 0.00 0.39 96 1008.5
20260507030002 44 180 2.6 0.0 0.00 0.00 0.39 96 1008.8
20260507025501 44 180 1.7 0.0 0.00 0.00 0.39 96 1008.5
20260507025001 44 203 0.9 0.0 0.00 0.00 0.39 95 1008.8
20260507024502 45 180 1.7 0.0 0.00 0.00 0.39 95 1008.8
20260507024002 45 203 1.7 0.0 0.00 0.00 0.39 95 1008.8
20260507023002 45 203 1.7 0.0 0.00 0.00 0.39 94 1008.8
20260507022001 45 203 1.7 0.0 0.00 0.00 0.39 93 1008.8
20260507021501 45 203 0.0 0.0 0.00 0.00 0.39 93 1008.8
20260507020502 45 203 2.6 0.0 0.00 0.00 0.39 94 1008.8
20260507020002 45 180 0.9 0.0 0.00 0.00 0.39 94 1008.8
20260507015501 45 180 1.7 0.0 0.00 0.00 0.39 93 1009.1
20260507014002 45 203 0.9 0.0 0.00 0.00 0.39 92 1009.1
20260507013502 45 203 2.6 0.0 0.00 0.00 0.39 91 1009.1
20260507012501 45 203 0.9 0.0 0.00 0.00 0.39 90 1009.1
20260507012002 45 180 0.9 0.0 0.00 0.00 0.39 90 1009.1
20260507010502 45 203 0.9 0.0 0.00 0.00 0.39 88 1008.8
20260507010002 45 203 1.7 0.0 0.00 0.00 0.39 89 1008.8
20260507004502 45 158 0.9 0.0 0.00 0.00 0.39 89 1008.5
20260507003002 45 203 1.7 0.0 0.00 0.00 0.39 89 1008.5
20260507002502 45 225 0.9 0.0 0.00 0.00 0.39 89 1008.5
20260507002001 45 203 1.7 0.0 0.00 0.00 0.39 89 1008.5
20260507001501 45 203 0.9 0.0 0.00 0.00 0.39 90 1008.5
20260507000502 46 203 0.9 0.0 0.00 0.00 0.39 91 1008.5
20260507000002 46 203 1.7 0.0 0.00 0.00 0.39 90 1008.5
20260506235501 46 203 0.9 0.0 0.00 0.00 0.39 90 1008.5
20260506235002 46 225 0.9 0.0 0.00 0.00 0.39 89 1008.5
20260506234502 46 203 0.0 0.0 0.00 0.00 0.39 89 1008.1
20260506234002 46 248 0.9 0.0 0.00 0.00 0.39 88 1008.1
20260506233502 47 203 0.9 0.0 0.00 0.00 0.39 87 1008.1
20260506232001 48 203 0.0 0.0 0.00 0.00 0.39 85 1007.8
20260506231501 48 225 0.9 0.0 0.00 0.00 0.39 85 1008.1
20260506231001 48 203 0.9 0.0 0.00 0.00 0.39 83 1007.8
20260506230502 48 270 0.9 0.0 0.00 0.00 0.39 83 1008.1
20260506230002 48 203 0.9 0.0 0.00 0.00 0.39 82 1008.1
20260506225002 48 180 0.9 0.0 0.00 0.00 0.39 82 1007.8